Flag for Germany Weather past 2 weeks in Kaiserslautern, Rhineland-Palatinate, Germany

Now
55 °F

Clear.


Feels Like: 55 °F
Forecast: 52 / 82 °F
Wind: No wind

Location: Ramstein

Current Time: Aug 4, 2015 at 5:26:21 AM

Latest Report: Aug 4, 2015 at 4:58 AM


Visibility: N/A

Pressure: 29.87 "Hg

Humidity: 94%

Dew point: 54 °F

Location of KaiserslauternLocation

Historic Weather in Kaiserslautern — Graph

°F

Kaiserslautern temperature yesterday

Maximum temperature yesterday: 92 °F (at 5:58 PM)
Minimum temperature yesterday: 50 °F (at 4:58 AM)
Average temperature yesterday: 72 °F

Past Weeks' High & Low Weather Summary

 TemperatureHumidityPressure
High92 °F (Aug 3, 5:58 PM)100% (Jul 20, 4:58 AM)30.13 "Hg (Jul 20, 4:58 AM)
Low39 °F (Jul 26, 5:03 AM)23% (Aug 3, 3:58 PM)29.64 "Hg (Jul 27, 4:58 AM)
Average66 °F63%29.92 "Hg
* Reported Jul 20 3:58 AM — Aug 4 3:58 AM, Kaiserslautern, Weather by CustomWeather, © 2015

Note: Actual official high and low records may vary slightly from our data, if they occured in-between our weather recording intervals... More about our weather records

Advertising

Kaiserslautern weather history for previous 24 hours

 ConditionsComfort  
Time TempWeatherWind HumidityBarometerVisibility
3:58 AM
Tue, Aug 4
57 °FClear.No wind88%29.88 "HgN/A
2:58 AM61 °FCool.N/A77%29.90 "HgN/A
1:58 AM59 °FClear.No wind88%29.92 "HgN/A
12:58 AM61 °FClear.No wind83%29.93 "HgN/A
11:58 PM
Mon, Aug 3
69 °FClear.No wind58%29.92 "HgN/A
10:58 PM72 °FClear.No wind57%29.93 "HgN/A
9:58 PM73 °FSunny.2 mph55%29.94 "HgN/A
8:58 PM75 °FSunny.No wind54%29.93 "HgN/A
7:58 PM90 °FSunny.No wind26%29.93 "HgN/A
6:58 PM91 °FSunny.1 mph24%29.93 "HgN/A
5:58 PM92 °FSunny.3 mph24%29.95 "HgN/A
4:58 PM91 °FSunny.6 mph24%29.96 "HgN/A
3:58 PM91 °FSunny.6 mph23%29.97 "HgN/A
2:58 PM88 °FSunny.3 mph26%29.99 "HgN/A
1:58 PM87 °FSunny.5 mph27%30.00 "HgN/A
12:58 PM84 °FSunny.9 mph33%30.01 "HgN/A
11:58 AM83 °FSunny.6 mph32%30.02 "HgN/A
10:58 AM79 °FSunny.3 mph40%30.02 "HgN/A
9:58 AM73 °FSunny.No wind50%30.03 "HgN/A
8:58 AM67 °FSunny.2 mph60%30.03 "HgN/A
7:58 AM59 °FSunny.No wind77%30.02 "HgN/A
6:58 AM52 °FClear.2 mph94%30.02 "HgN/A
5:58 AM51 °FClear.No wind92%30.02 "HgN/A
Weather by CustomWeather, © 2015

See weather overviewHow to use our weather pages